Météo par heure à Ichgl

Ce jour, 1 Octobre, Jeudi

Heure Température Précipitation Vent Pression Humidité
00:00 +1°C° 0 mm 1 m/s 569 mmHg 77%
01:00 +1°C° 0 mm 1 m/s 569 mmHg 74%
02:00 +1°C° 0 mm 1 m/s 569 mmHg 72%
03:00 0°C° 0 mm 1 m/s 568 mmHg 70%
04:00 0°C° 0 mm 1 m/s 568 mmHg 68%
05:00 +1°C° 0 mm 1 m/s 568 mmHg 67%
06:00 +1°C° 0 mm 1 m/s 568 mmHg 65%
07:00 +1°C° 0 mm 1 m/s 568 mmHg 64%
08:00 +3°C° 0 mm 1 m/s 568 mmHg 63%
09:00 +4°C° 0 mm 0 m/s 569 mmHg 61%
10:00 +6°C° 0 mm 0 m/s 570 mmHg 60%
11:00 +7°C° 0 mm 1 m/s 570 mmHg 60%
12:00 +8°C° 0 mm 1 m/s 570 mmHg 60%
13:00 +8°C° 0 mm 1 m/s 570 mmHg 60%
14:00 +8°C° 0 mm 1 m/s 570 mmHg 66%
15:00 +7°C° 0 mm 1 m/s 569 mmHg 72%
16:00 +7°C° 0 mm 1 m/s 569 mmHg 78%
17:00 +5°C° 0 mm 1 m/s 568 mmHg 84%
18:00 +3°C° 0 mm 1 m/s 567 mmHg 90%
19:00 0°C° 0 mm 0 m/s 566 mmHg 96%
20:00 +1°C° 0 mm 1 m/s 566 mmHg 96%
21:00 +1°C° 0 mm 1 m/s 566 mmHg 96%
22:00 +1°C° 0 mm 1 m/s 566 mmHg 96%
23:00 +1°C° 0.1 mm 1 m/s 566 mmHg 96%

Demain, 2 Octobre, Vendredi

Heure Température Précipitation Vent Pression Humidité
00:00 +1°C° 0.1 mm 2 m/s 566 mmHg 95%
01:00 +1°C° 0.1 mm 2 m/s 565 mmHg 95%
02:00 +1°C° 0.1 mm 2 m/s 565 mmHg 95%
03:00 +1°C° 0.1 mm 2 m/s 564 mmHg 95%
04:00 -1°C° 0.1 mm 2 m/s 564 mmHg 95%
05:00 +1°C° 0.2 mm 2 m/s 563 mmHg 95%
06:00 0°C° 0.2 mm 3 m/s 563 mmHg 95%
07:00 0°C° 0.2 mm 3 m/s 563 mmHg 95%
08:00 +1°C° 0.2 mm 3 m/s 563 mmHg 93%
09:00 +1°C° 0.2 mm 3 m/s 563 mmHg 91%
10:00 +1°C° 0.2 mm 4 m/s 563 mmHg 89%
11:00 +1°C° 0.3 mm 4 m/s 563 mmHg 88%
12:00 +3°C° 0.3 mm 4 m/s 563 mmHg 87%
13:00 +3°C° 0.3 mm 4 m/s 562 mmHg 86%
14:00 +3°C° 0.7 mm 4 m/s 562 mmHg 88%
15:00 +1°C° 0.7 mm 4 m/s 562 mmHg 89%
16:00 +1°C° 0.7 mm 4 m/s 561 mmHg 90%
17:00 0°C° 0.5 mm 5 m/s 561 mmHg 91%
18:00 0°C° 0.5 mm 5 m/s 560 mmHg 92%
19:00 -1°C° 0.5 mm 5 m/s 560 mmHg 94%
20:00 -1°C° 0.4 mm 5 m/s 560 mmHg 94%
21:00 -1°C° 0.4 mm 5 m/s 560 mmHg 93%
22:00 -1°C° 0.4 mm 5 m/s 560 mmHg 93%
23:00 -1°C° 0.7 mm 5 m/s 560 mmHg 93%

Après-demain, 3 Octobre, Samedi

Heure Température Précipitation Vent Pression Humidité
00:00 -1°C° 0.7 mm 5 m/s 559 mmHg 93%
01:00 -1°C° 0.7 mm 5 m/s 559 mmHg 93%
02:00 0°C° 0.5 mm 5 m/s 561 mmHg 93%
03:00 0°C° 0.5 mm 5 m/s 560 mmHg 93%
04:00 -1°C° 0.5 mm 6 m/s 560 mmHg 93%
05:00 0°C° 1.3 mm 5 m/s 560 mmHg 93%
06:00 0°C° 1.3 mm 5 m/s 560 mmHg 93%
07:00 0°C° 1.3 mm 5 m/s 560 mmHg 93%
08:00 +1°C° 1.6 mm 5 m/s 561 mmHg 93%
09:00 +3°C° 1.6 mm 4 m/s 561 mmHg 92%
10:00 +3°C° 1.6 mm 3 m/s 562 mmHg 91%
11:00 +3°C° 1.5 mm 3 m/s 562 mmHg 91%
12:00 +3°C° 1.5 mm 3 m/s 563 mmHg 91%
13:00 +3°C° 1.5 mm 3 m/s 563 mmHg 91%
14:00 +2°C° 3.2 mm 3 m/s 562 mmHg 94%
15:00 +1°C° 3.2 mm 3 m/s 562 mmHg 96%
16:00 0°C° 3.2 mm 3 m/s 561 mmHg 98%
17:00 -1°C° 0.8 mm 3 m/s 561 mmHg 96%
18:00 -1°C° 0.8 mm 3 m/s 561 mmHg 95%
19:00 -2°C° 0.8 mm 3 m/s 561 mmHg 94%
20:00 -4°C° 0 mm 4 m/s 561 mmHg 93%
21:00 -5°C° 0 mm 4 m/s 560 mmHg 92%
22:00 -7°C° 0 mm 4 m/s 560 mmHg 91%
23:00 -7°C° 0.1 mm 4 m/s 560 mmHg 91%

4 Octobre, Dimanche

Heure Température Précipitation Vent Pression Humidité
00:00 -7°C° 0.1 mm 4 m/s 560 mmHg 91%
01:00 -7°C° 0.1 mm 4 m/s 560 mmHg 91%
02:00 -7°C° 0.1 mm 4 m/s 560 mmHg 92%
03:00 -7°C° 0.1 mm 4 m/s 561 mmHg 92%
04:00 -5°C° 0.1 mm 4 m/s 561 mmHg 92%
05:00 -5°C° 0.1 mm 3 m/s 561 mmHg 92%
06:00 -5°C° 0.1 mm 3 m/s 562 mmHg 92%
07:00 -5°C° 0.1 mm 3 m/s 562 mmHg 93%
08:00 -2°C° 0.2 mm 3 m/s 563 mmHg 91%
09:00 -1°C° 0.2 mm 3 m/s 563 mmHg 89%
10:00 0°C° 0.2 mm 3 m/s 564 mmHg 88%
11:00 0°C° 0.3 mm 3 m/s 565 mmHg 85%
12:00 +1°C° 0.3 mm 3 m/s 565 mmHg 83%
13:00 0°C° 0.3 mm 4 m/s 565 mmHg 81%
14:00 +1°C° 0.2 mm 3 m/s 565 mmHg 81%
15:00 +1°C° 0.2 mm 3 m/s 565 mmHg 80%
16:00 +1°C° 0.2 mm 3 m/s 565 mmHg 80%
17:00 -1°C° 0.1 mm 3 m/s 564 mmHg 84%
18:00 -2°C° 0.1 mm 3 m/s 563 mmHg 87%
19:00 -4°C° 0.1 mm 2 m/s 562 mmHg 91%
20:00 -3°C° 0.3 mm 2 m/s 563 mmHg 91%
21:00 -3°C° 0.3 mm 2 m/s 563 mmHg 92%
22:00 -3°C° 0.3 mm 2 m/s 563 mmHg 92%
23:00 -3°C° 0.4 mm 2 m/s 563 mmHg 93%

5 Octobre, Lundi

Heure Température Précipitation Vent Pression Humidité
00:00 -1°C° 0.4 mm 1 m/s 563 mmHg 94%
01:00 -1°C° 0.4 mm 1 m/s 563 mmHg 95%
02:00 -1°C° 0.5 mm 1 m/s 562 mmHg 96%
03:00 -1°C° 0.5 mm 1 m/s 562 mmHg 97%
04:00 -1°C° 0.5 mm 1 m/s 562 mmHg 98%
05:00 -1°C° 0.9 mm 1 m/s 562 mmHg 98%
06:00 -1°C° 0.9 mm 1 m/s 562 mmHg 98%
07:00 -1°C° 0.9 mm 1 m/s 563 mmHg 98%
08:00 -1°C° 0.8 mm 1 m/s 563 mmHg 98%
09:00 -1°C° 0.8 mm 1 m/s 563 mmHg 98%
10:00 0°C° 0.8 mm 1 m/s 563 mmHg 98%
11:00 0°C° 0.3 mm 1 m/s 563 mmHg 97%
12:00 0°C° 0.3 mm 1 m/s 563 mmHg 96%
13:00 +1°C° 0.3 mm 1 m/s 563 mmHg 95%
14:00 +1°C° 0.2 mm 1 m/s 563 mmHg 94%
15:00 +1°C° 0.2 mm 1 m/s 563 mmHg 94%
16:00 +1°C° 0.2 mm 1 m/s 563 mmHg 93%
17:00 0°C° 0.1 mm 1 m/s 563 mmHg 94%
18:00 -1°C° 0.1 mm 1 m/s 563 mmHg 94%
19:00 -1°C° 0.1 mm 1 m/s 563 mmHg 94%
20:00 -1°C° 0 mm 1 m/s 563 mmHg 94%
21:00 -1°C° 0 mm 1 m/s 563 mmHg 94%
22:00 -1°C° 0 mm 1 m/s 563 mmHg 94%
23:00 -2°C° 0 mm 1 m/s 563 mmHg 93%

6 Octobre, Mardi

Heure Température Précipitation Vent Pression Humidité
00:00 -4°C° 0 mm 2 m/s 563 mmHg 92%
01:00 -5°C° 0 mm 2 m/s 563 mmHg 92%
02:00 -5°C° 0 mm 2 m/s 562 mmHg 90%
03:00 -6°C° 0 mm 2 m/s 562 mmHg 89%
04:00 -6°C° 0 mm 2 m/s 562 mmHg 87%
05:00 -6°C° 0 mm 2 m/s 562 mmHg 86%
06:00 -6°C° 0 mm 2 m/s 562 mmHg 84%
07:00 -6°C° 0 mm 2 m/s 562 mmHg 83%
08:00 -5°C° 0 mm 2 m/s 563 mmHg 81%
09:00 -3°C° 0 mm 2 m/s 564 mmHg 80%
10:00 -1°C° 0 mm 2 m/s 565 mmHg 79%
11:00 -1°C° 0 mm 2 m/s 565 mmHg 78%
12:00 +1°C° 0 mm 2 m/s 565 mmHg 77%
13:00 +2°C° 0 mm 2 m/s 565 mmHg 77%
14:00 +1°C° 0.1 mm 2 m/s 565 mmHg 79%
15:00 +1°C° 0.1 mm 2 m/s 565 mmHg 81%
16:00 +1°C° 0.1 mm 2 m/s 564 mmHg 83%
17:00 +1°C° 0.2 mm 1 m/s 564 mmHg 86%
18:00 -1°C° 0.2 mm 1 m/s 564 mmHg 90%
19:00 -2°C° 0.2 mm 1 m/s 564 mmHg 93%
20:00 -2°C° 0 mm 1 m/s 564 mmHg 93%
21:00 -2°C° 0 mm 1 m/s 564 mmHg 94%
22:00 -3°C° 0 mm 1 m/s 564 mmHg 94%
23:00 -3°C° 0 mm 1 m/s 564 mmHg 92%
Voir plus